This is the latest recevied weather packets stored in our database for station/object DM4WH-13. If no packets are shown the sender has not sent any weather packets the latest 10 day(s).
| Time | Temp. | Humidity | Pressure | Rain* | Wind** | Luminosity | Snow |
|---|---|---|---|---|---|---|---|
| 1777236902 | 3.89° C | 72% | 1026.1 hPa | 0 mm | 0 m/s | - | - |
| 1777236614 | 3.89° C | 72% | 1026.1 hPa | 0 mm | 0 m/s | - | - |
| 1777236302 | 3.89° C | 74% | 1026.1 hPa | 0 mm | 0 m/s | - | - |
| 1777236014 | 3.89° C | 74% | 1026.1 hPa | 0 mm | 0 m/s | - | - |
| 1777235727 | 3.89° C | 73% | 1026.1 hPa | 0 mm | 0 m/s | - | - |
| 1777235415 | 3.89° C | 72% | 1026.2 hPa | 0 mm | 0 m/s | - | - |
| 1777235127 | 5° C | 70% | 1026.2 hPa | 0 mm | 0 m/s | - | - |
| 1777234814 | 5° C | 67% | 1026.2 hPa | 0 mm | 0 m/s | - | - |
| 1777234502 | 5° C | 69% | 1026.2 hPa | 0 mm | 0 m/s | - | - |
| 1777234214 | 5° C | 66% | 1026.2 hPa | 0 mm | 0 m/s | - | - |
| 1777233902 | 6.11° C | 62% | 1026.2 hPa | 0 mm | 0 m/s | - | - |
| 1777233614 | 6.11° C | 62% | 1026.2 hPa | 0 mm | 0 m/s | - | - |
| 1777233302 | 6.11° C | 62% | 1026.2 hPa | 0 mm | 0 m/s | - | - |
| 1777233014 | 6.11° C | 62% | 1026.2 hPa | 0 mm | 0 m/s | - | - |
| 1777232727 | 6.11° C | 64% | 1026.2 hPa | 0 mm | 0 m/s | - | - |
| 1777232415 | 6.11° C | 62% | 1026.2 hPa | 0 mm | 0 m/s | - | - |
| 1777232127 | 6.11° C | 62% | 1026.2 hPa | 0 mm | 0 m/s | - | - |
| 1777231815 | 7.22° C | 60% | 1026.2 hPa | 0 mm | 0 m/s | - | - |
| 1777231527 | 7.22° C | 58% | 1026.1 hPa | 0 mm | 0 m/s | - | - |
| 1777231215 | 7.22° C | 60% | 1026.2 hPa | 0 mm | 0 m/s | - | - |
| 1777230927 | 7.22° C | 60% | 1026.2 hPa | 0 mm | 0 m/s | - | - |
| 1777230615 | 7.78° C | 55% | 1026 hPa | 0 mm | 0 m/s | - | - |
| 1777230302 | 7.22° C | 53% | 1026.1 hPa | 0 mm | 0 m/s | - | - |
| 1777230027 | 7.22° C | 55% | 1026.1 hPa | 0 mm | 0 m/s | - | - |
| 1777229715 | 7.22° C | 58% | 1026.1 hPa | 0 mm | 0 m/s | - | - |
* Rain latest hour (hover to see other rain measurements)
** Current wind speed in m/s (hover to see current wind gust speed)